This is the latest recevied weather packets stored in our database for station/object K5FEP. If no packets are shown the sender has not sent any weather packets the latest 10 day(s).
| Time | Temp. | Humidity | Pressure | Rain* | Wind** | Luminosity | Snow |
|---|---|---|---|---|---|---|---|
| 1788020005 | 27.78° C | 68% | 1022.4 hPa | 0 mm | - | 378 W/m² | - |
| 1788019704 | 27.78° C | 68% | 1022.5 hPa | 0 mm | - | 565 W/m² | - |
| 1788019404 | 27.78° C | 69% | 1022.4 hPa | 0 mm | - | 547 W/m² | - |
| 1788019102 | 27.78° C | 71% | 1022.4 hPa | 0 mm | - | 363 W/m² | - |
| 1788018814 | 27.78° C | 71% | 1022.4 hPa | 0 mm | - | 472 W/m² | - |
| 1788018497 | 27.78° C | 69% | 1022.3 hPa | 0 mm | - | 409 W/m² | - |
| 1788018196 | 27.22° C | 71% | 1022.2 hPa | 0 mm | - | 421 W/m² | - |
| 1788017893 | 27.22° C | 72% | 1022.5 hPa | 0 mm | - | 408 W/m² | - |
| 1788017589 | 27.78° C | 68% | 1022.5 hPa | 0 mm | - | 437 W/m² | - |
| 1788017285 | 27.78° C | 70% | 1022.3 hPa | 0 mm | - | 696 W/m² | - |
| 1788016981 | 27.78° C | 70% | 1022.5 hPa | 0 mm | - | 444 W/m² | - |
| 1788016680 | 27.22° C | 72% | 1022.4 hPa | 0 mm | - | 427 W/m² | - |
| 1788016378 | 27.22° C | 72% | 1022.3 hPa | 0 mm | - | 833 W/m² | - |
| 1788016078 | 26.67° C | 73% | 1022.1 hPa | 0 mm | - | 342 W/m² | - |
| 1788015777 | 26.67° C | 74% | 1022.2 hPa | 0 mm | - | 872 W/m² | - |
| 1788015472 | 26.67° C | 74% | 1022.1 hPa | 0 mm | - | 414 W/m² | - |
| 1788015168 | 26.67° C | 76% | 1022.2 hPa | 0 mm | - | 333 W/m² | - |
| 1788014865 | 26.67° C | 76% | 1022.1 hPa | 0 mm | - | 594 W/m² | - |
| 1788014560 | 26.67° C | 75% | 1022.2 hPa | 0 mm | - | 721 W/m² | - |
| 1788014256 | 26.11° C | 78% | 1022.2 hPa | 0 mm | - | 799 W/m² | - |
| 1788013950 | 25.56° C | 81% | 1022 hPa | 0 mm | - | 447 W/m² | - |
| 1788013645 | 25° C | 82% | 1022.2 hPa | 0 mm | - | 432 W/m² | - |
| 1788013340 | 25° C | 83% | 1022.2 hPa | 0 mm | - | 370 W/m² | - |
| 1788013040 | 24.44° C | 84% | 1022.2 hPa | 0 mm | - | 274 W/m² | - |
| 1788012739 | 24.44° C | 84% | 1022.1 hPa | 0 mm | - | 241 W/m² | - |
* Rain latest hour (hover to see other rain measurements)
** Current wind speed in m/s (hover to see current wind gust speed)